Showing default

PALAPA 1, 9009

Orbit data source: Space-Track

PALAPA 1, 9009 is a payload satellite owned by Perumtel (ID) in GEO that was launched on Thu, 08 Jul 1976 UTC via a DELTA 2914 launch vehicle from the Air Force Eastern Test Range (AFETR). Payload-class satellites include a variety of spacecraft equipped with specific instruments for various scientific and technological missions. These include communications satellites like Starlink; space stations such as the ISS; scientific satellites like the Hubble; Earth observation satellites from companies like Planet Labs, Umbra, and HawkEye 360; GPS; miniature CubeSats for education and research; and military/defense satellites.

Not visible in the next 10 days
Identifier
9009, 1976-066A
Orbit
GEO
Country
Flag of UnknownUnknown / INDO
Related business
Manufacturer
Hughes
Mission
Spacecraft
Bus & Motor
HS-333, FW5
Mass
575 kg wet, ~208 kg dry
Launch date (UTC)
1976-07-08 (49 years ago)
Launch vehicle
DELTA 2914
Launch site
Air Force Eastern Test Range (AFETR)
Object type
Payload
Rocket body
Debris
Shape & HBR
Unknown
Radar Cross Section
Large (>1 m²)

Expand to show TLE details & history
Last TLE update: 15 hours ago

TLE from 15 hours ago
0 PALAPA 1
1 09009U 76066A   25340.67477655 -.00000040  00000-0  00000-0 0  9999
2 09009   8.2983 306.3541 0005064 260.9825 283.2238  1.00112698126015
Epoch: 2025-12-06T16:11Z
TLE epoch observation values (Epoch: 2025-12-06T16:11:40.693Z)
Latitude
-0.5938°
Longitude
171.81349°
Altitude
35,826.088 km
Speed
3.073 km/s
True Right ascension
08h 41m 43s
True Declination
0° 35' 36"
Sunlit
Object was in daylight at epoch
Visualization orbit readout
Latitude
Unknown
Longitude
Unknown
Altitude
Unknown
Speed
Unknown
Apparent Right ascension
Unknown
Apparent Declination
Unknown
Sunlit
N/A
Visualization observer readout
Local Sidereal Time
05:33:27
Azimuth
Unknown
Elevation
Unknown
Doppler factor
Unknown
Orbital elements
Apogee altitude
35,853.664 km
Perigee altitude
35,810.913 km
Semi-major axis
42,210.426 km
Eccentricity
0.00051
Inclination
8.2983°
RAAN
306.3541°
Arg. of periapsis
260.9825°
True anomaly
283.1673°
Mean anomaly
283.2238°
Eccentric anomaly
283.19555°
Mean motion
0.25027 °/min
Orbital period
1,438.43 mins
BSTAR
0
Loading maneuver chart data...
Computing Atmospheric mass density...
Loading historical data...
Loading historical data...
Loading historical data...
Loading historical data...
Loading historical data...
Loading historical data...
Loading historical data...
Other satellites on launch #66 in the year 1976 (1976-07-08 UTC)

Documentation

Showing up to 5 results
|